Regional Weather Roundup
Issued by NWS Sterling, VA

Home | Current Version | Previous Version | Graphics & Text | Print | Product List | Glossary On
Versions: 1 2 3 4 5 6 7 8 9 10 11 12 13 14 15 16 17 18 19 20 21 22 23 24 25 26 27 28 29 30 31 32 33 34 35 36 37 38 39 40 41 42 43 44 45 46 47 48 49 50
000
ASUS41 KLWX 200710
RWRLWX

REGIONAL WEATHER ROUNDUP
NATIONAL WEATHER SERVICE BALTIMORE MD/WASHINGTON DC
200 AM EST FRI JAN 20 2017

Note: "FAIR" indicates few or no clouds below 12,000 feet
with no significant weather and/or obstructions to visibility.
 TC=TEMPERATURE CELSIUS

 * =Non NWS site. Station does not report precipitation (e.g. rain,
    snow, etc.), thunder, or fog.

DCZ001-MDZ009-015-VAZ040>042-051-053>054-200800-
WASHINGTON METRO

CITY           SKY/WX    TMP DP  RH WIND       PRES   REMARKS
WASHINGTON NAT CLOUDY    40  38  93 CALM      30.02R
DULLES         CLOUDY    34  32  92 CALM      29.99S
ANDREWS AFB    CLOUDY    35  33  92 S5        30.00R
FT BELVOIR     CLOUDY    34  33  94 CALM      30.01S
QUANTICO       CLOUDY    38  37  97 CALM      30.03S
COLLEGE PARK*  CLOUDY    32  32 100 CALM      30.02R
LEESBURG*      PTCLDY    36  36 100 MISG      30.00F
GAITHERSBURG*  CLOUDY    36  30  80 CALM      30.04R

$$

MDZ006>007-011-014-200800-
BALTIMORE METRO

CITY           SKY/WX    TMP DP  RH WIND       PRES   REMARKS
BWI AIRPORT    CLOUDY    33  33 100 CALM      30.01S
MD SCIENCE CTR   N/A     41  34  76 MISG      30.02R
ANNAPOLIS      CLOUDY    37  34  89 CALM      30.01S
FORT MEADE*    PTCLDY    32  30  93 CALM      30.04R

$$

MDZ012-015-019>023-200800-
MARYLAND EASTERN SHORE

CITY           SKY/WX    TMP DP  RH WIND       PRES   REMARKS
OCEAN CITY     CLOUDY    33  33 100 CALM      30.02F
SALISBURY      PTCLDY    32  31  96 CALM      30.01F
BAY BRIDGE AP* PTCLDY    34  34 100 CALM      30.02R
CAMBRIDGE*     PTCLDY    32  32 100 CALM      30.02R
EASTON*        PTCLDY    35  32  91 CALM      30.05S

$$

MDZ017>025-200800-
SOUTHERN MARYLAND

CITY           SKY/WX    TMP DP  RH WIND       PRES   REMARKS
PATUXENT RIVER PTCLDY    34  33  96 CALM      30.02R
ST INIGOES     PTCLDY    35  33  92 CALM      30.02R
LEONARDTOWN*   PTCLDY    36  34  93 CALM      30.03S

$$

MDZ003>005-200800-
NORTH CENTRAL MARYLAND

CITY           SKY/WX    TMP DP  RH WIND       PRES   REMARKS
FREDERICK*     CLOUDY    30  30 100 E3        30.03S FOG
HAGERSTOWN APT PTCLDY    32  29  88 CALM      29.98R
WESTMINSTER*     N/A     34  34 100 CALM      29.99R

$$

MDZ501>502-200800-
WESTERN MARYLAND

CITY           SKY/WX    TMP DP  RH WIND       PRES   REMARKS
OAKLAND*         N/A     34  32  93 SE16      29.85F WCI  23
CUMBERLAND*    PTCLDY    34  34 100 N3        29.99S

$$

VAZ025>031-200800-
SHENANDOAH VALLEY

CITY           SKY/WX    TMP DP  RH WIND       PRES   REMARKS
WINCHESTER*    PTCLDY    36  34  93 CALM      29.95F
FRONT ROYAL*   MOSUNNY   36  34  93 CALM      29.95S
LURAY*         CLOUDY    37  37 100 CALM      29.95F
NEW MARKET*    CLOUDY    36  35  94 CALM      29.95S
STAUNTON*      CLOUDY    38  37  94 CALM      29.96F
WAYNESBORO*    CLOUDY    45  37  76 CALM      29.94F

$$

WVZ021-048>050-054>055-200800-
EASTERN WEST VIRGINIA PANHANDLE

CITY           SKY/WX    TMP DP  RH WIND       PRES   REMARKS
MARTINSBURG    CLOUDY    35  32  88 CALM      29.96F
PETERSBURG*    CLOUDY    35  35  97 CALM      29.95S

$$

VAZ036>039-050-200800-
CENTRAL FOOTHILLS

CITY           SKY/WX    TMP DP  RH WIND       PRES   REMARKS
CHARLOTTESVILL CLOUDY    43  38  82 CALM      29.97F
CULPEPER*      CLOUDY    34  34  99 CALM      30.01R
ORANGE*          N/A     37  37 100 CALM      30.01S
GORDONSVILLE*  CLOUDY    37  37  99 CALM      29.98S
WARRENTON*     CLOUDY    34  32  92 CALM      29.99F

$$

VAZ055>057-200800-
NORTH AND CENTRAL PIEDMONT

CITY           SKY/WX    TMP DP  RH WIND       PRES   REMARKS
FREDERICKSBRG* MOCLDY    38  38 100 CALM      30.00F
STAFFORD*      PTCLDY    33  33 100 CALM      30.04F

$$

NCZ024-NYZ072-PAZ021-071-VAZ022-071-200800-
OTHER REGIONAL OBSERVATIONS

CITY           SKY/WX    TMP DP  RH WIND       PRES   REMARKS
NEW YORK CITY  CLOUDY    42  32  67 VRB3      30.05S
PHILADELPHIA   PTCLDY    35  32  88 CALM      30.05R
PITTSBURGH     CLOUDY    34  33  96 E7        29.83F
ROANOKE        CLOUDY    47  39  74 CALM      29.94F
RICHMOND       CLOUDY    41  38  89 SE3       30.00F
RALEIGH        CLOUDY    48  42  80 SE6       29.96F

$$

ANZ530>537-200800-
MARINE OBSERVATIONS

STATION/POSITION TIME  TEMP    WIND        PRES
                       AIR SEA DIR/SP/G
                 (UTC) (F)     (DEG/KT/KT) (MB)
THOMAS PT LIGHT  0700   39 40  140/  5/  5   N/A
BALT KEY BRIDGE  0648   37      CALM  /  1 1016.6R
COVE POINT       0648   40     180/  4/  4 1017.1R
LEWISETTA        0648   41 44  210/  4/  4 1016.4R
SOLOMONS ISLAND  0648   37 41     CALM       N/A
PINEY POINT      0648          160/  2/  2   N/A

$$




USA.gov is the U.S. government's official web portal to all federal, state and local government web resources and services.